Location: Ellerstadt
(49.4644°N, 8.2615°E)
Time: 22:47:58
(UTC+00:00)

Cosmos 2333 Rocket - Pass Details

Date: 03 March 2021
Orbit: 837 x 864 km, 70.8° (Epoch: 13 April)

Event Time Altitude Azimuth Distance (km) Brightness Sun altitude
Rises 18:47:38 0° 181° (S) 3,388 5.3 -16.1°
Reaches altitude 10° 18:50:12 10° 173° (S) 2,461 4.5 -16.5°
Maximum altitude 18:55:22 38° 107° (ESE) 1,285 2.6 -17.3°
Drops below altitude 10° 19:00:34 10° 42° (NE) 2,494 4.4 -18.2°
Sets 19:03:12 0° 34° (NE) 3,439 5.2 -18.6°
